Location: G�nzburg
(48.4565°N, 10.3217°E)
Time: 03:12:01
(UTC+01:00)

Tiangong 2 - Visible Passes

Search period start: 20 November 2017 00:00
Search period end: 30 November 2017 00:00
Orbit: 386 x 391 km, 42.8° (Epoch: 19 November)

Date Brightness Start Highest point End Pass type
(mag) Time Alt. Az. Time Alt. Az. Time Alt. Az.
27 Nov 4.0 06:50:10 10° SSW 06:52:10 16° SSE 06:54:11 10° ESE visible
28 Nov 4.2 05:53:15 10° S 05:54:12 11° SSE 05:55:09 10° SE visible
29 Nov 3.5 06:29:48 10° SW 06:32:17 21° SSE 06:34:47 10° ESE visible
